Guadalupe Pass, TX

2:04 PM MDT on April 20, 2018 (GMT -0600)
Guadalupe Pass

Weather History for KGDP - October, 2011

Change the Weather History Date:

Monday, October 17, 2011

  Actual Average Record
Temperature  
Mean Temperature 70 °F -  
Max Temperature 82 °F 68 °F 84 °F (2014)
Min Temperature 54 °F 48 °F 28 °F (1999)
Cooling Degree Days 4    
Growing Degree Days 20 (Base 50)    
Moisture  
Dew Point 22 °F    
Average Humidity 18    
Maximum Humidity 43    
Minimum Humidity 10    
Precipitation  
Precipitation 0.00 in - - ()
Sea Level Pressure  
Sea Level Pressure 29.89 in    
Wind  
Wind Speed 17 mph (West)    
Max Wind Speed 41 mph    
Max Gust Speed 51 mph    
Visibility 9 miles    
Events      
Averages and records for this station are not official NWS values.
T = Trace of Precipitation, MM = Missing Value Source: NWS Daily Summary

Daily Weather History Graph

Daily Weather History Graph

Search for Another Location

Airport or City:

Astronomy

Oct. 17, 2011 Rise Set
Actual Time 7:03 AM MDT 6:24 PM MDT
Civil Twilight 6:39 AM MDT 6:49 PM MDT
Nautical Twilight 6:10 AM MDT 7:17 PM MDT
Astronomical Twilight 5:42 AM MDT 7:46 PM MDT
Moon 10:22 PM MDT (10/17) 11:57 AM MDT (10/17)
Length of Visible Light 12h 10m
Length of Day
11h 21m
Waning Gibbous, 73% of the Moon is Illuminated
Oct 17
Waning Gibbous
Oct 19
Last Quarter
Oct 26
New
Nov 2
First Quarter
Nov 10
Full

Hourly Weather History & Observations

Time (MDT) Temp. Dew Point Humidity Pressure Visibility Wind Dir Wind Speed Gust Speed Precip Events Conditions
12:51 AM 72.0 °F 18.0 °F 13% 29.87 in 10.0 mi West 9.2 mph - N/A   Clear
1:51 AM 70.0 °F 19.0 °F 14% 29.88 in 10.0 mi WSW 4.6 mph - N/A   Clear
2:51 AM 69.1 °F 19.0 °F 15% 29.87 in 10.0 mi SW 6.9 mph - N/A   Clear
3:51 AM 68.0 °F 19.0 °F 15% 29.86 in 10.0 mi SW 5.8 mph - N/A   Clear
4:51 AM 68.0 °F 19.0 °F 15% 29.86 in 10.0 mi SSW 5.8 mph - N/A   Clear
5:51 AM 64.0 °F 19.0 °F 18% 29.89 in 10.0 mi WSW 6.9 mph - N/A   Clear
6:51 AM 64.0 °F 18.0 °F 17% 29.91 in 10.0 mi WSW 5.8 mph - N/A   Clear
7:51 AM 64.9 °F 19.0 °F 17% 29.91 in 9.0 mi WSW 9.2 mph - N/A   Clear
8:51 AM 66.0 °F 19.9 °F 17% 29.93 in 10.0 mi WSW 8.1 mph - N/A   Clear
9:51 AM 66.9 °F 23.0 °F 19% 29.92 in 10.0 mi SW 16.1 mph - N/A   Clear
10:51 AM 71.1 °F 21.9 °F 16% 29.86 in 10.0 mi SW 23.0 mph - N/A   Clear
11:51 AM 77.0 °F 23.0 °F 13% 29.83 in 10.0 mi WSW 28.8 mph - N/A   Clear
12:51 PM 82.0 °F 24.1 °F 12% 29.78 in 10.0 mi West 33.4 mph 42.6 mph N/A   Clear
1:51 PM 82.0 °F 23.0 °F 11% 29.75 in 10.0 mi West 35.7 mph 44.9 mph N/A   Clear
2:51 PM 82.0 °F 19.9 °F 10% 29.73 in 10.0 mi WSW 38.0 mph 50.6 mph N/A   Clear
3:51 PM 82.0 °F 19.9 °F 10% 29.74 in 9.0 mi West 39.1 mph 50.6 mph N/A   Clear
4:51 PM 82.0 °F 19.9 °F 10% 29.77 in 9.0 mi West 34.5 mph 42.6 mph N/A   Clear
5:51 PM 78.1 °F 21.0 °F 12% 29.83 in 9.0 mi WSW 20.7 mph 35.7 mph N/A   Clear
6:51 PM 77.0 °F 21.0 °F 12% 29.86 in 10.0 mi WNW 18.4 mph 27.6 mph N/A   Clear
7:51 PM 75.9 °F 19.9 °F 12% 29.88 in 10.0 mi WNW 16.1 mph 25.3 mph N/A   Clear
8:19 PM 73.4 °F 21.2 °F 14% 30.12 in 10.0 mi NNE 25.3 mph 32.2 mph N/A   Clear
8:51 PM 72.0 °F 14.0 °F 11% 29.91 in 10.0 mi NNE 27.6 mph 35.7 mph N/A   Clear
9:27 PM 60.8 °F 33.8 °F 36% 30.11 in 5.0 mi ENE 36.8 mph 42.6 mph N/A   Haze
9:51 PM 60.1 °F 33.1 °F 36% 29.93 in 5.0 mi ENE 36.8 mph 47.2 mph N/A   Haze
10:02 PM 59.0 °F 33.8 °F 39% 30.11 in 5.0 mi ENE 41.4 mph 47.2 mph N/A   Haze
10:51 PM 57.9 °F 32.0 °F 37% 29.92 in 6.0 mi NE 41.4 mph 48.3 mph N/A   Haze
11:51 PM 54.0 °F 32.0 °F 43% 29.95 in 7.0 mi ENE 36.8 mph 42.6 mph N/A   Clear